EHI
8 5 2 1 1 1 0 0 0 0 1 1 1 0 0 0 0 0 0 0 0 0 0 1 4 7 7 7 8 8 6 5 5 5 5 3 2 1 0 0 0 0 0 1 1 1 0 0 0
6 4 2 1 0 0 0 0 1 1 1 1 0 0 0 0 0 0 0 0 0 0 0 2 4 6 7 7 6 6 5 4 4 5 4 2 1 0 0 0 0 0 0 0 0 0 0 0 0
5 4 2 1 0 0 0 1 3 3 2 1 0 0 0 0 0 0 1 1 0 0 1 3 5 6 6 6 5 4 4 4 4 4 3 1 0 0 0 0 1 0 0 0 0 0 0 0 0
7 6 3 1 0 0 0 2 5 5 3 1 0 0 0 0 0 1 2 1 0 0 2 4 6 7 6 6 5 3 2 3 4 3 1 0 0 0 0 0 0 0 0 0 0 1 1 0 0
7 5 2 0 0 0 0 2 4 4 2 0 0 0 0 0 1 4 4 2 1 1 2 4 6 7 7 6 5 3 2 2 3 1 0 0 0 0 0 0 0 0 1 0 1 2 2 1 0
7 4 1 0 0 0 1 2 2 1 0 0 0 0 0 0 1 4 6 4 2 2 2 3 5 7 6 7 7 4 2 2 2 1 1 1 1 0 0 0 0 0 0 0 1 2 2 1 0
7 5 2 0 0 0 1 1 1 1 1 0 0 0 0 0 0 3 6 5 4 3 2 1 3 4 4 6 6 5 3 3 3 2 2 2 1 0 0 0 0 0 1 1 1 2 2 2 1
6 4 1 0 0 0 0 0 1 3 2 1 0 0 0 0 1 2 5 6 5 4 2 1 1 1 1 2 3 2 2 2 3 3 3 2 1 1 0 0 0 0 1 2 2 2 3 2 1
3 2 1 1 0 0 0 0 1 3 3 1 1 1 1 1 2 3 4 6 6 5 3 1 0 0 0 0 0 0 0 1 2 2 2 2 1 0 0 0 1 1 1 1 2 2 2 1 0
2 2 2 1 0 0 0 0 1 2 3 3 3 2 1 1 3 4 4 5 5 4 2 1 0 0 0 0 0 0 0 0 1 1 1 1 0 0 0 0 1 1 0 0 1 1 1 0 0
2 3 3 1 0 0 0 0 1 2 3 4 4 4 2 1 2 3 2 3 4 3 1 0 0 0 0 0 0 0 0 0 0 0 0 0 0 0 0 0 1 1 0 0 0 1 1 0 0
1 2 2 1 0 0 0 0 1 3 4 4 5 5 2 0 0 1 2 3 5 4 2 1 0 0 0 0 0 0 0 0 0 0 0 0 0 0 0 0 0 0 0 0 0 0 0 0 0
0 1 1 0 0 0 1 1 1 3 5 5 6 6 3 1 1 1 4 7 8 7 6 4 2 1 1 0 0 0 0 0 0 0 0 0 0 0 0 0 0 0 0 0 0 0 0 0 0
0 0 0 0 1 1 1 2 2 4 5 6 7 6 3 3 3 4 5 8 10 9 8 7 5 4 3 1 0 0 0 0 0 0 0 0 0 0 0 0 0 0 0 0 0 0 0 0 0
0 0 0 0 0 0 1 1 1 3 5 5 7 6 5 5 7 6 6 7 8 8 8 7 5 4 3 2 1 0 0 0 1 1 1 0 0 0 0 0 0 0 0 0 0 0 0 0 0
0 0 0 0 0 0 0 0 1 3 4 4 5 6 6 6 7 7 7 6 6 6 6 5 3 2 1 1 0 0 0 1 2 2 1 0 0 0 0 0 0 0 0 0 0 0 0 0 0
0 0 0 0 0 0 0 0 1 4 5 5 5 5 5 5 6 8 9 7 5 5 5 4 2 1 0 0 0 0 0 2 2 2 1 1 0 0 0 0 0 0 0 0 0 0 0 0 0
0 0 0 0 0 1 0 0 1 5 7 7 7 7 6 4 5 10 11 9 6 5 5 4 3 2 2 1 0 0 0 1 2 3 3 2 1 0 0 0 0 0 0 0 0 0 0 0 0
0 0 0 0 0 0 0 1 3 5 7 7 9 9 8 6 7 12 14 13 10 8 5 3 3 4 3 2 1 1 1 1 2 5 5 3 2 1 1 0 0 0 0 0 0 0 0 0 0
0 0 0 0 0 0 1 2 4 5 6 8 10 12 11 8 9 14 17 17 15 11 7 5 4 5 6 5 4 3 2 2 3 4 5 5 4 3 3 1 0 0 0 0 0 0 0 0 0
0 0 0 0 0 0 1 2 5 6 6 8 12 15 13 10 11 15 19 21 21 16 11 8 7 7 9 8 7 6 5 6 5 5 6 7 6 6 5 3 1 1 0 0 0 0 0 0 0
0 0 0 0 0 0 1 1 5 8 7 7 12 15 14 12 14 17 21 24 24 20 16 13 12 11 11 10 9 8 8 8 8 7 7 7 7 7 6 5 4 2 1 0 0 0 0 0 0
0 0 0 0 0 0 0 1 4 8 8 8 11 15 16 16 17 18 21 24 23 22 21 18 17 15 12 10 9 10 10 10 10 8 6 7 8 7 6 5 5 3 2 1 0 0 0 0 0
0 0 0 0 0 0 0 1 4 7 9 10 14 18 18 19 19 18 19 22 24 25 26 25 22 19 15 12 11 11 12 12 13 10 6 6 7 6 5 4 4 3 3 2 1 0 0 0 0
0 0 0 0 0 0 0 1 4 8 10 13 16 19 20 21 22 21 21 26 29 30 31 31 28 23 18 17 16 14 13 13 13 10 7 6 6 6 6 4 3 3 3 3 2 1 0 0 0
0 0 0 0 0 0 1 3 6 9 11 13 15 19 21 23 25 26 28 31 34 34 34 34 31 26 23 22 19 15 13 11 10 8 7 6 6 7 7 5 4 3 4 4 4 3 1 1 1
0 0 0 0 0 0 1 4 6 8 10 12 15 18 20 22 25 29 31 33 35 36 35 35 32 29 27 24 21 16 12 10 9 8 7 6 6 5 5 5 4 4 5 6 6 5 4 3 3
0 0 0 0 0 0 1 2 4 8 11 14 17 19 20 21 25 30 33 34 35 34 33 33 34 32 29 26 21 16 14 13 12 10 7 5 4 4 4 4 4 4 6 6 6 6 6 5 5
0 0 0 0 0 0 0 1 4 10 14 16 20 22 23 25 28 31 34 34 34 32 30 31 33 32 30 27 22 18 17 17 14 10 5 4 3 3 3 3 4 5 6 6 6 6 6 6 6
0 0 0 0 0 0 0 1 6 12 16 18 22 25 27 29 30 32 35 34 32 31 30 30 32 32 30 27 23 19 18 17 14 8 4 3 3 3 3 4 5 6 6 6 6 6 6 6 6
Wind_Speed
11 7 3 1 2 4 4 4 7 8 6 8 10 10 9 7 6 6 3 8 9 7 5 7 10 11 12 14 14 14 14 15 14 14 14 14 14 14 14 14 14 14 14 13 13 13 13 13 14
8 5 1 1 4 4 3 5 10 11 11 11 11 11 10 8 8 8 5 8 9 8 5 7 11 12 13 13 13 13 13 14 13 13 13 13 13 13 13 13 13 13 12 12 12 11 12 12 13
8 4 1 2 2 4 4 6 12 13 10 9 7 7 6 6 7 6 7 10 9 7 5 8 13 13 13 13 13 13 13 13 13 13 13 13 13 13 13 12 12 12 11 11 11 10 11 11 12
5 2 1 3 4 4 7 7 12 13 9 8 9 7 5 5 5 9 12 11 10 6 5 8 13 13 12 12 12 12 12 12 12 12 12 12 12 12 12 11 11 11 10 10 10 9 10 10 10
1 2 3 3 4 5 7 10 11 10 7 9 11 9 6 4 11 14 12 11 10 7 5 7 13 13 12 12 12 12 12 12 12 12 11 11 11 11 11 11 10 10 9 9 9 8 8 9 9
2 2 3 3 6 7 7 11 14 15 13 11 10 8 4 6 11 11 11 10 9 8 6 5 11 12 11 11 11 11 12 12 11 11 11 11 11 10 10 10 10 9 9 8 7 7 7 7 7
3 3 3 5 7 7 7 9 11 13 12 8 8 7 4 5 8 10 10 9 9 8 6 4 4 7 10 11 11 11 11 11 11 11 10 10 10 10 9 9 9 8 8 7 6 6 6 5 6
4 3 2 3 7 6 7 8 10 13 10 10 7 7 6 7 9 9 9 8 8 7 6 4 3 3 3 4 9 10 10 10 10 10 10 10 9 8 8 7 8 8 7 6 6 5 5 4 6
2 4 2 5 7 7 9 12 9 9 11 6 6 7 10 12 11 10 8 6 6 6 4 4 4 3 3 3 6 7 9 9 9 7 9 7 3 3 4 6 7 7 7 6 5 4 4 3 4
4 4 5 6 9 11 13 14 10 9 11 9 10 10 12 12 11 10 9 7 6 6 5 4 4 4 3 4 3 2 4 4 4 3 4 3 3 2 3 4 7 7 6 5 4 4 3 1 1
5 6 5 6 10 12 12 10 7 12 9 12 14 14 11 11 10 9 8 7 7 6 6 4 4 3 3 2 3 2 2 2 3 3 4 3 2 2 1 1 2 3 4 2 2 2 1 1 1
4 4 6 7 10 11 11 9 8 9 10 13 14 13 11 10 9 8 8 7 6 6 5 5 4 3 2 2 3 3 3 2 2 3 4 3 2 2 2 1 2 2 1 1 1 1 1 1 1
6 4 6 8 10 10 11 10 10 10 14 13 14 12 11 10 8 7 7 7 7 6 5 4 4 3 3 2 2 3 3 3 3 3 3 4 3 2 2 2 2 2 2 2 2 2 1 1 1
2 4 6 7 9 9 14 10 8 11 14 14 13 11 11 10 9 8 7 7 6 6 5 4 4 4 4 3 2 3 3 3 3 3 3 3 3 2 2 2 2 2 2 2 2 2 2 2 2
3 5 5 5 7 7 11 6 7 13 14 13 12 11 10 10 10 10 9 8 7 6 5 5 5 4 3 3 3 3 3 3 2 2 3 3 3 3 2 2 1 1 2 2 2 2 1 1 1
4 4 2 2 5 6 8 5 7 11 13 12 11 11 10 10 10 10 10 8 7 7 5 5 5 4 3 2 2 2 3 3 2 2 2 3 3 3 3 2 1 1 2 2 2 2 1 1 1
4 1 1 2 4 6 6 5 8 10 12 11 10 10 11 9 8 9 10 9 8 7 6 5 4 4 3 3 2 2 3 3 2 2 2 2 3 3 3 2 1 1 2 1 2 2 2 2 1
4 2 2 3 3 5 5 6 10 10 12 12 11 10 10 11 10 10 9 9 8 7 7 6 5 4 3 2 2 2 2 1 2 2 2 3 2 3 3 2 2 2 1 1 1 1 1 1 2
6 5 5 6 4 5 5 6 10 10 10 11 10 10 10 11 9 9 10 10 8 7 6 5 5 4 3 2 2 2 1 1 1 2 3 3 3 3 3 2 2 2 2 1 2 1 1 1 1
6 5 4 3 3 4 4 5 7 9 11 12 13 13 12 9 8 9 10 9 9 8 7 6 5 5 4 3 2 2 2 1 1 1 2 3 3 3 3 3 2 2 2 2 2 2 1 1 1
6 7 7 5 3 4 5 1 2 5 6 8 10 11 12 13 13 12 11 10 9 9 8 7 6 5 5 4 2 2 2 1 1 0 1 1 3 3 3 3 3 2 2 2 2 2 3 1 1
6 8 8 7 5 1 3 2 5 5 6 9 10 10 12 12 12 12 12 10 10 9 8 6 5 5 4 4 3 3 2 2 2 2 1 1 2 2 3 3 3 2 2 2 2 2 2 2 1
7 6 5 5 6 3 1 3 5 3 6 10 11 12 12 13 13 13 13 12 11 10 8 7 6 5 4 4 3 3 2 2 1 1 1 1 1 2 2 3 3 2 2 2 2 1 2 2 2
4 4 5 5 5 2 3 4 5 5 10 10 10 11 11 13 12 11 11 10 9 9 8 8 7 6 5 5 4 4 4 3 2 2 1 1 1 1 2 3 3 2 2 2 2 2 2 2 2
3 5 4 4 4 3 2 3 6 7 8 11 12 12 12 12 12 11 12 11 10 10 9 8 7 6 5 5 5 5 5 4 4 3 2 2 1 1 2 2 2 2 2 2 2 2 2 2 2
4 9 8 5 4 3 2 2 6 6 5 6 8 10 11 11 11 11 13 13 12 12 11 9 8 7 6 5 5 4 4 3 3 3 3 3 2 2 2 2 2 2 2 2 2 1 2 1 2
4 3 8 8 3 1 2 3 6 2 1 4 6 7 9 11 12 12 12 13 12 12 11 11 10 8 6 6 5 4 4 3 3 3 2 2 1 2 2 2 2 2 2 1 1 1 1 1 1
6 7 6 6 5 2 2 3 5 5 4 4 5 7 7 8 10 11 11 12 11 11 10 9 9 8 7 6 5 4 4 4 4 3 3 2 2 1 2 2 1 1 1 1 1 1 1 1 1
1 2 5 5 7 7 4 7 7 9 7 7 7 7 8 9 10 9 9 10 10 9 9 9 8 7 6 6 5 4 4 4 4 3 3 3 2 2 2 2 1 1 1 1 1 1 1 1 0
5 4 6 6 4 5 5 7 3 7 7 8 7 6 7 8 8 8 8 9 8 8 8 8 8 8 7 6 6 5 4 4 4 3 3 3 2 2 2 2 2 1 1 1 2 2 1 1 1
Wind_Direction
158 162 160 169 51 54 81 90 97 87 71 69 78 84 82 70 94 123 147 135 136 134 131 121 116 112 111 111 110 111 110 109 109 108 108 109 111 112 113 115 116 117 117 118 119 122 125 129 130
157 161 151 64 76 81 82 103 98 103 116 109 86 85 80 75 90 113 131 142 138 137 136 128 122 118 115 113 111 111 112 111 112 112 112 113 115 116 117 117 117 118 119 120 120 123 126 128 131
163 173 130 77 98 128 124 110 107 107 103 98 91 72 74 98 106 125 148 141 132 131 135 136 129 125 121 119 116 117 117 117 118 118 118 119 118 118 119 118 118 120 120 121 122 125 129 134 136
160 131 50 78 108 133 129 129 120 110 86 78 92 72 69 97 116 131 137 135 129 130 134 139 134 130 127 127 125 123 124 124 123 123 123 122 121 121 121 120 119 119 119 122 125 128 133 138 141
120 99 65 77 109 108 115 118 114 103 93 93 96 97 86 80 114 127 134 133 132 130 128 134 133 132 132 132 131 129 130 128 127 126 126 126 126 125 125 123 123 122 122 124 124 127 132 142 147
91 81 80 102 113 105 108 111 104 102 109 107 102 101 94 117 122 131 131 130 129 127 126 135 137 136 137 136 134 134 134 133 132 129 128 128 129 131 132 131 131 130 128 124 127 133 137 143 152
127 115 137 131 117 116 122 121 118 123 122 119 119 101 105 120 128 131 128 125 125 129 129 133 138 139 141 142 141 140 139 138 135 133 133 133 134 138 138 138 136 133 131 129 132 137 142 152 162
167 114 101 117 117 120 126 113 124 126 117 130 122 119 143 153 137 123 122 120 124 131 136 136 129 127 135 142 148 148 147 142 139 139 139 142 142 142 143 144 144 141 141 142 142 144 148 156 167
126 91 154 153 133 130 120 110 106 100 116 119 98 120 138 139 129 118 114 112 121 126 135 144 143 145 151 159 153 153 151 146 146 145 145 142 137 138 145 153 156 153 155 156 156 156 156 153 163
136 146 192 166 143 135 127 122 117 106 107 106 107 114 128 132 132 132 134 135 138 146 153 157 156 160 168 160 148 162 161 155 153 152 151 149 149 158 158 166 171 168 169 171 172 172 169 149 107
154 158 151 133 134 127 124 118 109 123 128 143 141 142 142 138 138 141 144 144 151 158 158 164 163 163 167 158 167 181 166 161 163 161 158 151 148 158 149 155 179 182 186 192 196 192 178 130 124
129 131 127 134 130 127 128 121 115 131 150 151 146 147 143 143 148 150 148 145 143 142 148 159 155 150 156 151 171 178 163 164 165 169 161 152 155 163 166 174 184 182 187 189 203 188 187 162 172
99 107 104 121 122 124 122 120 119 130 141 143 143 144 148 152 151 147 144 139 137 139 140 140 137 132 131 129 164 159 159 159 154 155 159 155 156 166 164 172 176 182 178 183 197 189 192 185 195
107 100 108 115 110 118 119 119 114 141 145 145 147 151 154 153 151 145 143 140 142 145 144 141 133 129 120 111 111 130 144 148 144 154 163 156 153 150 150 160 166 177 181 188 194 192 186 189 181
80 86 77 112 115 125 112 101 137 152 148 148 152 156 156 155 153 155 159 155 154 152 148 148 146 133 120 115 116 117 132 136 143 156 159 154 152 153 149 154 169 187 177 165 163 177 167 165 155
51 71 95 222 127 138 110 145 169 158 151 154 159 159 158 161 163 163 163 157 155 151 150 156 151 138 135 136 127 118 123 127 138 146 147 154 153 147 142 147 178 176 145 137 144 149 136 138 151
26 92 196 248 173 149 123 163 182 167 156 161 164 162 160 165 167 167 166 161 159 156 155 153 145 146 150 146 128 123 116 129 144 146 145 155 153 146 138 145 165 140 125 145 171 151 158 171 185
228 221 212 216 206 143 149 174 172 173 162 167 169 166 164 169 175 170 164 163 160 157 154 152 151 155 146 127 102 91 94 118 143 156 161 154 151 144 138 138 138 124 116 127 143 146 160 173 182
197 200 216 229 189 146 169 170 172 175 170 169 174 173 170 173 175 168 166 166 159 156 155 157 155 162 144 129 129 125 137 159 163 179 170 161 158 150 145 146 144 133 133 157 149 137 141 167 134
211 201 214 220 184 145 143 166 177 180 183 181 181 179 176 170 168 171 170 170 168 168 165 163 165 165 165 163 161 160 158 181 179 184 169 169 163 164 160 154 157 152 141 138 131 131 133 179 157
230 200 199 185 148 90 97 29 187 188 189 185 185 181 177 175 175 178 177 177 172 173 173 173 174 169 170 160 129 104 73 56 57 112 184 192 169 170 162 164 159 152 146 158 166 152 148 173 231
241 223 193 170 129 157 138 182 252 194 197 194 194 187 183 179 177 179 178 175 176 177 169 165 171 169 167 151 139 148 154 177 204 192 191 205 180 172 164 160 157 156 155 170 190 172 161 153 200
220 207 181 164 139 113 61 129 266 189 201 209 202 195 189 183 179 179 177 174 174 171 167 169 166 166 162 155 160 164 174 192 190 161 160 183 194 182 167 158 156 161 166 179 182 167 160 163 177
181 80 49 54 80 93 223 154 247 210 206 207 204 194 190 182 176 178 174 170 172 171 168 168 167 169 164 163 171 179 183 174 157 154 161 185 195 187 169 168 170 176 179 183 184 187 180 184 180
101 94 39 7 18 250 246 144 240 230 210 198 195 191 188 179 174 173 173 174 176 171 172 170 168 171 172 167 174 184 181 169 167 172 175 172 175 196 207 184 181 185 192 189 179 177 190 187 186
191 141 158 187 207 256 328 213 253 243 209 184 182 178 172 171 175 177 178 180 181 176 174 171 173 178 176 172 180 180 170 164 171 175 171 174 184 195 188 171 173 182 183 188 177 177 203 192 202
176 184 165 137 139 113 275 287 309 312 168 155 160 163 173 175 175 181 183 181 178 177 178 175 176 178 180 180 179 178 173 162 161 160 155 165 180 178 161 162 165 174 171 168 158 182 211 197 212
166 165 104 114 136 164 276 258 233 232 195 172 159 157 168 169 173 176 175 177 178 180 178 173 175 178 178 178 182 181 173 165 157 148 149 154 165 158 143 146 158 162 155 153 143 187 222 180 244
154 103 120 126 149 153 195 253 220 203 184 163 161 162 160 160 169 169 166 171 174 173 171 172 174 171 175 180 179 170 161 160 150 153 162 162 155 149 146 155 155 152 150 147 136 166 156 157 281
168 179 150 154 197 156 160 255 246 183 169 154 152 146 151 158 165 164 161 158 161 164 167 171 176 178 183 180 168 165 159 156 158 163 168 159 154 151 147 146 151 162 164 165 164 182 167 161 177